• Em Portugal
  • Lista de países
  • Para 7 dias
  • Temperatura da água
  • Mapas de satélite
  • Mapa do tempo
  • Widgets de tempo
  • user-avatar
    Iniciar Sessão

    Previsão horária em Lubango

    Hoje, 21 Julho, Sábado

    Tempo Temperatura Precipitação Vento Pressão Humidade
    00:00 +11°C° 0 mm 1 m/s 609 mmHg 38%
    01:00 +10°C° 0 mm 2 m/s 608 mmHg 39%
    02:00 +10°C° 0 mm 2 m/s 608 mmHg 41%
    03:00 +9°C° 0 mm 2 m/s 608 mmHg 43%
    04:00 +9°C° 0 mm 2 m/s 608 mmHg 46%
    05:00 +9°C° 0 mm 2 m/s 608 mmHg 47%
    06:00 +9°C° 0 mm 2 m/s 608 mmHg 48%
    07:00 +8°C° 0 mm 2 m/s 608 mmHg 49%
    08:00 +13°C° 0 mm 2 m/s 610 mmHg 40%
    09:00 +17°C° 0 mm 2 m/s 611 mmHg 31%
    10:00 +21°C° 0 mm 3 m/s 613 mmHg 23%
    11:00 +23°C° 0 mm 2 m/s 613 mmHg 20%
    12:00 +25°C° 0 mm 2 m/s 613 mmHg 17%
    13:00 +27°C° 0 mm 2 m/s 614 mmHg 14%
    14:00 +27°C° 0 mm 2 m/s 613 mmHg 14%
    15:00 +27°C° 0 mm 2 m/s 613 mmHg 14%
    16:00 +27°C° 0 mm 2 m/s 612 mmHg 13%
    17:00 +23°C° 0 mm 2 m/s 611 mmHg 18%
    18:00 +20°C° 0 mm 1 m/s 610 mmHg 23%
    19:00 +16°C° 0 mm 1 m/s 609 mmHg 28%
    20:00 +15°C° 0 mm 1 m/s 609 mmHg 31%
    21:00 +14°C° 0 mm 1 m/s 609 mmHg 33%
    22:00 +13°C° 0 mm 1 m/s 610 mmHg 36%
    23:00 +13°C° 0 mm 1 m/s 609 mmHg 35%

    Amanhã, 22 Julho, Domingo

    Tempo Temperatura Precipitação Vento Pressão Humidade
    00:00 +12°C° 0 mm 1 m/s 609 mmHg 35%
    01:00 +12°C° 0 mm 1 m/s 609 mmHg 34%
    02:00 +12°C° 0 mm 1 m/s 609 mmHg 34%
    03:00 +11°C° 0 mm 1 m/s 609 mmHg 34%
    04:00 +11°C° 0 mm 1 m/s 608 mmHg 34%
    05:00 +11°C° 0 mm 1 m/s 609 mmHg 35%
    06:00 +10°C° 0 mm 2 m/s 609 mmHg 35%
    07:00 +10°C° 0 mm 2 m/s 609 mmHg 36%
    08:00 +15°C° 0 mm 2 m/s 611 mmHg 31%
    09:00 +18°C° 0 mm 3 m/s 612 mmHg 25%
    10:00 +22°C° 0 mm 3 m/s 614 mmHg 20%
    11:00 +25°C° 0 mm 3 m/s 614 mmHg 18%
    12:00 +26°C° 0 mm 3 m/s 614 mmHg 15%
    13:00 +28°C° 0 mm 2 m/s 614 mmHg 13%
    14:00 +28°C° 0 mm 2 m/s 613 mmHg 13%
    15:00 +28°C° 0 mm 2 m/s 613 mmHg 13%
    16:00 +27°C° 0 mm 2 m/s 612 mmHg 13%
    17:00 +24°C° 0 mm 2 m/s 612 mmHg 17%
    18:00 +20°C° 0 mm 2 m/s 611 mmHg 22%
    19:00 +17°C° 0 mm 2 m/s 610 mmHg 27%
    20:00 +16°C° 0 mm 1 m/s 610 mmHg 30%
    21:00 +15°C° 0 mm 1 m/s 611 mmHg 33%
    22:00 +14°C° 0 mm 1 m/s 611 mmHg 35%
    23:00 +14°C° 0 mm 1 m/s 611 mmHg 35%

    Depois de amanhã, 23 Julho, Segunda-feira

    Tempo Temperatura Precipitação Vento Pressão Humidade
    00:00 +14°C° 0 mm 1 m/s 610 mmHg 35%
    01:00 +13°C° 0 mm 2 m/s 610 mmHg 35%
    02:00 +13°C° 0 mm 2 m/s 610 mmHg 35%
    03:00 +13°C° 0 mm 2 m/s 610 mmHg 36%
    04:00 +13°C° 0 mm 2 m/s 609 mmHg 36%
    05:00 +12°C° 0 mm 2 m/s 610 mmHg 36%
    06:00 +12°C° 0 mm 2 m/s 610 mmHg 36%
    07:00 +12°C° 0 mm 2 m/s 610 mmHg 36%
    08:00 +16°C° 0 mm 3 m/s 611 mmHg 32%
    09:00 +19°C° 0 mm 4 m/s 613 mmHg 27%
    10:00 +22°C° 0 mm 4 m/s 614 mmHg 22%
    11:00 +25°C° 0 mm 4 m/s 614 mmHg 19%
    12:00 +26°C° 0 mm 3 m/s 614 mmHg 17%
    13:00 +28°C° 0 mm 3 m/s 614 mmHg 15%
    14:00 +28°C° 0 mm 3 m/s 614 mmHg 14%
    15:00 +28°C° 0 mm 2 m/s 613 mmHg 14%
    16:00 +28°C° 0 mm 2 m/s 613 mmHg 14%
    17:00 +25°C° 0 mm 2 m/s 612 mmHg 19%
    18:00 +21°C° 0 mm 1 m/s 611 mmHg 23%
    19:00 +18°C° 0 mm 1 m/s 610 mmHg 28%
    20:00 +16°C° 0 mm 1 m/s 610 mmHg 30%
    21:00 +16°C° 0 mm 1 m/s 611 mmHg 31%
    22:00 +15°C° 0 mm 1 m/s 611 mmHg 32%
    23:00 +14°C° 0 mm 2 m/s 610 mmHg 32%

    24 Julho, Terça-feira

    Tempo Temperatura Precipitação Vento Pressão Humidade
    00:00 +14°C° 0 mm 2 m/s 610 mmHg 31%
    01:00 +14°C° 0 mm 2 m/s 610 mmHg 30%
    02:00 +13°C° 0 mm 2 m/s 610 mmHg 32%
    03:00 +13°C° 0 mm 2 m/s 609 mmHg 33%
    04:00 +12°C° 0 mm 2 m/s 609 mmHg 34%
    05:00 +12°C° 0 mm 2 m/s 609 mmHg 35%
    06:00 +12°C° 0 mm 2 m/s 610 mmHg 36%
    07:00 +11°C° 0 mm 3 m/s 610 mmHg 37%
    08:00 +14°C° 0 mm 3 m/s 611 mmHg 31%
    09:00 +19°C° 0 mm 3 m/s 613 mmHg 25%
    10:00 +22°C° 0 mm 3 m/s 614 mmHg 19%
    11:00 +25°C° 0 mm 3 m/s 614 mmHg 16%
    12:00 +26°C° 0 mm 3 m/s 614 mmHg 14%
    13:00 +28°C° 0 mm 2 m/s 614 mmHg 12%
    14:00 +28°C° 0 mm 2 m/s 614 mmHg 12%
    15:00 +28°C° 0 mm 2 m/s 613 mmHg 11%
    16:00 +28°C° 0 mm 2 m/s 613 mmHg 11%
    17:00 +25°C° 0 mm 2 m/s 612 mmHg 15%
    18:00 +21°C° 0 mm 1 m/s 611 mmHg 20%
    19:00 +18°C° 0 mm 1 m/s 610 mmHg 24%
    20:00 +16°C° 0 mm 1 m/s 610 mmHg 25%
    21:00 +15°C° 0 mm 1 m/s 610 mmHg 26%
    22:00 +14°C° 0 mm 1 m/s 610 mmHg 27%
    23:00 +13°C° 0 mm 1 m/s 610 mmHg 27%

    25 Julho, Quarta-feira

    Tempo Temperatura Precipitação Vento Pressão Humidade
    00:00 +13°C° 0 mm 1 m/s 610 mmHg 28%
    01:00 +13°C° 0 mm 2 m/s 609 mmHg 28%
    02:00 +12°C° 0 mm 2 m/s 609 mmHg 31%
    03:00 +12°C° 0 mm 2 m/s 609 mmHg 33%
    04:00 +12°C° 0 mm 2 m/s 609 mmHg 36%
    05:00 +12°C° 0 mm 2 m/s 609 mmHg 37%
    06:00 +12°C° 0 mm 2 m/s 609 mmHg 38%
    07:00 +12°C° 0 mm 2 m/s 609 mmHg 39%
    08:00 +16°C° 0 mm 3 m/s 611 mmHg 32%
    09:00 +19°C° 0 mm 3 m/s 612 mmHg 26%
    10:00 +23°C° 0 mm 4 m/s 614 mmHg 19%
    11:00 +25°C° 0 mm 3 m/s 614 mmHg 17%
    12:00 +27°C° 0 mm 3 m/s 614 mmHg 15%
    13:00 +28°C° 0 mm 2 m/s 614 mmHg 13%
    14:00 +28°C° 0 mm 2 m/s 613 mmHg 13%
    15:00 +28°C° 0 mm 2 m/s 613 mmHg 13%
    16:00 +28°C° 0 mm 2 m/s 612 mmHg 13%
    17:00 +24°C° 0 mm 2 m/s 611 mmHg 20%
    18:00 +21°C° 0 mm 1 m/s 611 mmHg 26%
    19:00 +16°C° 0 mm 1 m/s 610 mmHg 33%
    20:00 +15°C° 0 mm 1 m/s 610 mmHg 37%
    21:00 +14°C° 0 mm 1 m/s 610 mmHg 41%
    22:00 +13°C° 0 mm 1 m/s 610 mmHg 45%
    23:00 +13°C° 0 mm 1 m/s 609 mmHg 45%

    26 Julho, Quinta-feira

    Tempo Temperatura Precipitação Vento Pressão Humidade
    00:00 +12°C° 0 mm 1 m/s 609 mmHg 45%
    01:00 +12°C° 0 mm 1 m/s 609 mmHg 45%
    02:00 +12°C° 0 mm 1 m/s 609 mmHg 44%
    03:00 +12°C° 0 mm 1 m/s 608 mmHg 44%
    04:00 +11°C° 0 mm 1 m/s 608 mmHg 44%
    05:00 +11°C° 0 mm 1 m/s 608 mmHg 42%
    06:00 +12°C° 0 mm 1 m/s 609 mmHg 41%
    07:00 +12°C° 0 mm 1 m/s 609 mmHg 39%
    08:00 +16°C° 0 mm 1 m/s 611 mmHg 32%
    09:00 +20°C° 0 mm 1 m/s 612 mmHg 25%
    10:00 +24°C° 0 mm 2 m/s 614 mmHg 18%
    11:00 +25°C° 0 mm 2 m/s 614 mmHg 17%
    12:00 +26°C° 0 mm 2 m/s 614 mmHg 16%
    13:00 +27°C° 0 mm 3 m/s 613 mmHg 16%
    14:00 +26°C° 0 mm 3 m/s 613 mmHg 18%
    15:00 +26°C° 0 mm 3 m/s 612 mmHg 20%
    16:00 +25°C° 0 mm 3 m/s 612 mmHg 22%
    17:00 +21°C° 0 mm 3 m/s 611 mmHg 34%
    18:00 +18°C° 0 mm 2 m/s 610 mmHg 45%
    19:00 +15°C° 0 mm 2 m/s 609 mmHg 56%
    20:00 +14°C° 0 mm 1 m/s 610 mmHg 62%
    21:00 +13°C° 0 mm 1 m/s 610 mmHg 69%
    22:00 +11°C° 0 mm 1 m/s 610 mmHg 75%
    23:00 +11°C° 0 mm 1 m/s 609 mmHg 77%
    Mostrar mais